Rochelle, IL

12:27 PM CDT on March 27, 2017 (GMT -0500)
Rochelle

Weather History for KRPJ - January, 2013

Change the Weather History Date:

Monday, January 21, 2013

  Actual Average (KRFD) Record (KRFD)
Temperature  
Mean Temperature 8 °F -  
Max Temperature 12 °F 29 °F 60 °F (1906)
Min Temperature 3 °F 15 °F -22 °F (1970)
Degree Days  
Heating Degree Days 58    
Moisture  
Dew Point -2 °F    
Average Humidity 65    
Maximum Humidity 81    
Minimum Humidity 47    
Precipitation  
Precipitation 0.00 in - - ()
Sea Level Pressure  
Sea Level Pressure 30.21 in    
Wind  
Wind Speed 16 mph (WNW)    
Max Wind Speed 23 mph    
Max Gust Speed 32 mph    
Visibility 10 miles    
Events Snow    
Averages and records for this station are not official NWS values.
T = Trace of Precipitation, MM = Missing Value Source: NWS Daily Summary

Daily Weather History Graph

Daily Weather History Graph

Search for Another Location

Airport or City:

Trip Planner

Search our weather history database for the weather conditions in past years. The results will help you decide how hot, cold, wet, or windy it might be!

Date:

Astronomy

Jan. 21, 2013 Rise Set
Actual Time 7:18 AM CST 4:57 PM CST
Civil Twilight 6:47 AM CST 5:28 PM CST
Nautical Twilight 6:13 AM CST 6:02 PM CST
Astronomical Twilight 5:40 AM CST 6:35 PM CST
Moon 12:37 PM CST (1/21) 2:46 AM CST (1/21)
Length of Visible Light 10h 40m
Length of Day
9h 39m
Waxing Gibbous, 75% of the Moon is Illuminated
Jan 21
Waxing Gibbous
Jan 26
Full
Feb 3
Last Quarter
Feb 10
New
Feb 17
First Quarter

Hourly Weather History & Observations

Time (CST) Temp. Windchill Dew Point Humidity Pressure Visibility Wind Dir Wind Speed Gust Speed Precip Events Conditions
12:15 AM 11.5 °F -5.2 °F 5.5 °F 77% 30.20 in 10.0 mi WNW 16.1 mph - N/A   Clear
12:35 AM 11.3 °F -3.6 °F 5.5 °F 78% 30.19 in 10.0 mi West 12.7 mph - N/A   Clear
12:55 AM 11.7 °F -5.0 °F 5.7 °F 77% 30.19 in 10.0 mi WNW 16.1 mph 19.6 mph N/A   Mostly Cloudy
1:15 AM 12.0 °F -5.6 °F 5.4 °F 75% 30.19 in 10.0 mi West 18.4 mph - N/A   Overcast
1:35 AM 11.8 °F -3.6 °F 5.0 °F 74% 30.20 in 10.0 mi WNW 13.8 mph - N/A   Overcast
1:55 AM 12.0 °F -4.0 °F 4.3 °F 71% 30.20 in 10.0 mi WNW 15.0 mph 21.9 mph N/A   Overcast
2:15 AM 12.0 °F -4.5 °F 4.5 °F 72% 30.19 in 10.0 mi WNW 16.1 mph - N/A   Overcast
2:35 AM 12.2 °F -3.7 °F 4.6 °F 72% 30.18 in 10.0 mi WNW 15.0 mph 18.4 mph N/A   Overcast
2:55 AM 12.2 °F -3.1 °F 4.8 °F 72% 30.17 in 10.0 mi WNW 13.8 mph - N/A   Overcast
3:15 AM 12.0 °F -4.0 °F 5.2 °F 74% 30.17 in 7.0 mi WNW 15.0 mph 18.4 mph N/A   Overcast
3:35 AM 12.0 °F -4.5 °F 5.9 °F 76% 30.17 in 7.0 mi WNW 16.1 mph 20.7 mph N/A   Overcast
3:55 AM 11.7 °F -0.9 °F 4.1 °F 72% 30.15 in 10.0 mi NW 9.2 mph - N/A Snow Light Snow
4:15 AM 11.8 °F -4.2 °F 4.6 °F 73% 30.15 in 7.0 mi WNW 15.0 mph - N/A   Overcast
4:35 AM 11.3 °F -1.3 °F 6.4 °F 81% 30.14 in 7.0 mi WNW 9.2 mph - N/A   Overcast
4:55 AM 10.9 °F -5.4 °F 6.3 °F 81% 30.14 in 3.0 mi WNW 15.0 mph - N/A Snow Light Snow
5:15 AM 10.8 °F -5.6 °F 5.9 °F 81% 30.15 in 10.0 mi WNW 15.0 mph - N/A   Overcast
5:35 AM 10.4 °F -7.2 °F 4.1 °F 76% 30.15 in 10.0 mi WNW 17.3 mph - N/A   Overcast
5:55 AM 9.9 °F -7.3 °F 1.4 °F 69% 30.14 in 10.0 mi WNW 16.1 mph 24.2 mph N/A   Overcast
6:15 AM 9.1 °F -8.8 °F 3.4 °F 77% 30.14 in 5.0 mi West 17.3 mph - N/A Snow Light Snow
6:35 AM 7.9 °F -12.8 °F 1.4 °F 75% 30.15 in 10.0 mi West 23.0 mph 26.5 mph N/A   Overcast
6:55 AM 6.8 °F -12.4 °F 0.1 °F 74% 30.17 in 10.0 mi West 18.4 mph 25.3 mph N/A   Mostly Cloudy
7:15 AM 6.3 °F -11.3 °F -0.4 °F 74% 30.17 in 10.0 mi West 15.0 mph - N/A   Mostly Cloudy
7:35 AM 5.7 °F -13.2 °F -1.3 °F 73% 30.17 in 10.0 mi West 17.3 mph 21.9 mph N/A   Mostly Cloudy
7:55 AM 5.4 °F -15.7 °F -2.2 °F 71% 30.18 in 10.0 mi West 21.9 mph 25.3 mph N/A   Scattered Clouds
8:15 AM 5.7 °F -14.3 °F -2.4 °F 69% 30.19 in 10.0 mi WNW 19.6 mph - N/A   Scattered Clouds
8:35 AM 5.4 °F -14.2 °F -2.2 °F 71% 30.20 in 10.0 mi WNW 18.4 mph - N/A   Mostly Cloudy
8:55 AM 4.8 °F -15.5 °F -2.7 °F 71% 30.21 in 4.0 mi WNW 19.6 mph 23.0 mph N/A Snow Light Snow
9:15 AM 4.3 °F -16.7 °F -5.1 °F 65% 30.22 in 10.0 mi WNW 20.7 mph 26.5 mph N/A   Scattered Clouds
9:35 AM 4.8 °F -14.4 °F -6.2 °F 61% 30.23 in 10.0 mi NW 17.3 mph 27.6 mph N/A   Clear
9:55 AM 5.0 °F -13.6 °F -5.3 °F 63% 30.23 in 10.0 mi NW 16.1 mph 23.0 mph N/A   Clear
10:15 AM 5.2 °F -13.3 °F -5.4 °F 62% 30.23 in 10.0 mi WNW 16.1 mph 25.3 mph N/A   Scattered Clouds
10:35 AM 6.6 °F -13.6 °F -5.4 °F 58% 30.23 in 10.0 mi WNW 20.7 mph 25.3 mph N/A   Clear
10:55 AM 6.1 °F -14.3 °F -7.1 °F 55% 30.23 in 10.0 mi WNW 20.7 mph 26.5 mph N/A   Clear
11:15 AM 6.3 °F -14.5 °F -6.3 °F 56% 30.24 in 10.0 mi WNW 21.9 mph 29.9 mph N/A   Clear
11:35 AM 7.0 °F -14.0 °F -6.3 °F 55% 30.23 in 10.0 mi West 23.0 mph 27.6 mph N/A   Scattered Clouds
11:55 AM 7.7 °F -10.7 °F -7.1 °F 51% 30.22 in 10.0 mi WNW 17.3 mph 27.6 mph N/A   Clear
12:15 PM 7.7 °F -11.7 °F -7.1 °F 51% 30.21 in 10.0 mi West 19.6 mph 26.5 mph N/A   Clear
12:35 PM 8.2 °F -11.5 °F -7.8 °F 48% 30.21 in 10.0 mi WNW 20.7 mph 26.5 mph N/A   Clear
12:55 PM 9.1 °F -10.3 °F -7.4 °F 47% 30.21 in 10.0 mi West 20.7 mph 27.6 mph N/A   Clear
1:15 PM 9.3 °F -10.0 °F -6.9 °F 48% 30.21 in 10.0 mi WNW 20.7 mph 32.2 mph N/A   Clear
1:35 PM 10.2 °F -8.4 °F -5.6 °F 49% 30.21 in 10.0 mi West 19.6 mph 26.5 mph N/A   Clear
2:15 PM 10.0 °F -7.1 °F -5.3 °F 50% 30.21 in 10.0 mi West 16.1 mph 26.5 mph N/A   Clear
2:35 PM 10.0 °F -7.6 °F -5.8 °F 49% 30.21 in 10.0 mi West 17.3 mph 21.9 mph N/A   Clear
2:55 PM 10.0 °F -8.6 °F -4.9 °F 51% 30.21 in 10.0 mi West 19.6 mph - N/A   Clear
3:15 PM 9.7 °F -8.1 °F -6.0 °F 49% 30.21 in 10.0 mi WNW 17.3 mph 25.3 mph N/A   Clear
3:35 PM 9.9 °F -8.4 °F -6.0 °F 49% 30.21 in 10.0 mi West 18.4 mph 27.6 mph N/A   Clear
3:55 PM 9.3 °F -7.4 °F -5.6 °F 51% 30.21 in 10.0 mi West 15.0 mph 21.9 mph N/A   Clear
4:15 PM 8.8 °F -9.3 °F -5.4 °F 53% 30.22 in 10.0 mi West 17.3 mph - N/A   Clear
4:35 PM 7.7 °F -11.2 °F -5.8 °F 54% 30.22 in 10.0 mi West 18.4 mph 23.0 mph N/A   Clear
4:55 PM 6.8 °F -12.9 °F -5.6 °F 57% 30.22 in 10.0 mi West 19.6 mph - N/A   Clear
5:15 PM 6.4 °F -12.3 °F -5.6 °F 58% 30.23 in 10.0 mi West 17.3 mph - N/A   Clear
5:35 PM 6.3 °F -12.5 °F -5.4 °F 59% 30.23 in 10.0 mi West 17.3 mph 24.2 mph N/A   Clear
5:55 PM 5.9 °F -13.5 °F -5.3 °F 60% 30.24 in 10.0 mi West 18.4 mph 25.3 mph N/A   Clear
6:15 PM 5.5 °F -14.0 °F -5.1 °F 62% 30.24 in 10.0 mi WNW 18.4 mph 21.9 mph N/A   Clear
6:55 PM 5.0 °F -14.7 °F -5.4 °F 62% 30.25 in 10.0 mi WNW 18.4 mph 25.3 mph N/A   Clear
7:15 PM 4.8 °F -14.9 °F -5.6 °F 62% 30.25 in 10.0 mi West 18.4 mph 24.2 mph N/A   Clear
7:35 PM 4.6 °F -15.2 °F -5.8 °F 62% 30.26 in 10.0 mi West 18.4 mph 23.0 mph N/A   Clear
7:55 PM 4.5 °F -14.3 °F -5.8 °F 63% 30.26 in 10.0 mi West 16.1 mph 20.7 mph N/A   Clear
8:35 PM 4.1 °F -13.4 °F -5.3 °F 65% 30.26 in 10.0 mi West 13.8 mph - N/A   Clear
8:55 PM 4.1 °F -12.0 °F -4.7 °F 67% 30.27 in 10.0 mi West 11.5 mph 17.3 mph N/A   Clear
9:15 PM 4.1 °F -12.0 °F -4.5 °F 67% 30.27 in 10.0 mi West 11.5 mph - N/A   Clear
9:35 PM 4.1 °F -14.1 °F -4.7 °F 67% 30.27 in 10.0 mi West 15.0 mph - N/A   Clear
9:55 PM 4.1 °F -14.7 °F -4.5 °F 67% 30.27 in 10.0 mi West 16.1 mph - N/A   Clear
10:15 PM 4.1 °F -14.1 °F -4.7 °F 67% 30.27 in 10.0 mi WNW 15.0 mph - N/A   Clear
10:35 PM 4.1 °F -14.7 °F -4.7 °F 67% 30.27 in 10.0 mi WNW 16.1 mph - N/A   Clear
10:55 PM 3.9 °F -15.0 °F -4.7 °F 67% 30.27 in 10.0 mi WNW 16.1 mph - N/A   Clear
11:35 PM 3.6 °F -12.6 °F -4.4 °F 70% 30.27 in 10.0 mi WNW 11.5 mph - N/A   Clear
11:55 PM 3.2 °F -13.1 °F -4.5 °F 70% 30.27 in 10.0 mi WNW 11.5 mph - N/A   Clear